{"data":{"norad_id":52307,"epoch":"2026-09-20T02:01:26.513760Z","epoch_age_seconds":95373,"freshness":"FRESH","line1":"1 52307U 22041AY  26263.08433465  .00000184  00000+0  16582-4 0  9996","line2":"2 52307  53.1599 293.3339 0000892  81.0370 279.0734 15.34390806244035","mean_motion":15.34390806,"eccentricity":8.92e-5,"inclination_deg":53.1599,"raan_deg":293.3339,"arg_perigee_deg":81.037,"mean_anomaly_deg":279.0734,"bstar":1.6582e-5,"rev_number":24403,"period_min":93.848320412838,"perigee_km":462.12036146214,"apogee_km":463.34077223606,"semimajor_km":6840.8675668491,"source":"CELESTRAK","updated_at":"2026-09-20T09:00:40.019558Z"}}